Date,TemperatureHighF,TemperatureAvgF,TemperatureLowF,DewpointHighF,DewpointAvgF,DewpointLowF,HumidityHigh,HumidityAvg,HumidityLow,PressureMaxIn,PressureMinIn,WindSpeedMaxMPH,WindSpeedAvgMPH,GustSpeedMaxMPH,PrecipitationSumIn
2013-3-1,50.9,46.0,42.4,48.1,44.7,41.9,99,95,88,29.85,29.66,6,1,17,0.22
2013-3-2,63.1,52.5,43.0,50.9,43.5,36.2,93,72,54,30.09,29.90,6,1,10,0.01
2013-3-3,62.8,53.2,41.0,47.3,43.0,38.0,93,71,44,30.06,29.95,7,1,12,0.00
2013-3-4,65.1,57.3,48.6,52.0,49.0,46.3,92,74,59,29.92,29.65,11,3,23,0.04
2013-3-5,65.8,59.6,54.7,54.0,51.1,48.4,96,74,59,29.62,29.32,9,3,18,0.22
2013-3-6,68.7,60.1,50.7,53.7,51.8,49.8,99,75,59,29.59,29.28,7,2,13,0.11
2013-3-7,71.8,61.1,54.7,56.0,52.6,50.0,90,75,53,29.76,29.59,8,2,14,0.01
2013-3-8,70.9,61.2,54.1,55.7,49.3,46.4,90,66,46,29.82,29.64,11,2,21,0.01
2013-3-9,69.3,59.9,53.8,54.0,48.6,44.7,87,68,47,29.80,29.72,9,2,15,0.00
2013-3-10,66.0,58.7,51.8,51.1,46.0,41.7,88,64,48,29.73,29.65,8,3,14,0.00
2013-3-11,63.9,56.3,50.0,51.6,46.9,43.1,93,72,54,29.72,29.65,8,2,21,0.00
2013-3-12,61.9,54.4,46.8,50.3,45.3,38.9,85,72,58,29.65,29.57,8,2,13,0.00
2013-3-13,51.6,39.5,37.4,48.2,39.0,37.1,99,98,83,29.61,29.38,11,1,23,1.11
2013-3-14,52.9,47.1,41.0,39.7,35.4,32.6,95,64,48,29.82,29.64,9,2,27,0.00
2013-3-15,53.6,46.6,37.0,39.7,34.3,26.2,75,62,50,30.07,29.85,7,2,15,0.00
2013-3-16,57.6,49.3,37.0,44.2,41.9,24.8,90,76,54,30.05,29.85,8,2,18,0.00
2013-3-17,61.7,56.5,45.7,52.9,46.7,37.8,93,70,57,29.80,29.51,5,1,9,0.25
2013-3-18,61.7,54.6,45.3,52.6,46.3,36.0,99,75,50,29.78,29.48,6,2,11,0.12
2013-3-19,68.0,56.8,43.2,53.9,48.6,40.7,95,75,50,29.76,29.58,8,1,11,0.00
2013-3-20,64.6,52.0,44.4,54.9,48.7,42.8,98,89,64,30.10,29.56,6,1,12,0.19
2013-3-21,64.0,55.1,43.2,58.2,50.2,42.1,97,84,69,30.11,29.96,5,1,11,0.00
2013-3-22,72.7,61.3,45.0,54.6,48.2,37.5,89,64,48,29.91,29.73,5,1,11,0.00
2013-3-23,64.8,56.2,52.3,53.1,49.0,45.7,90,77,63,29.71,29.59,4,1,8,0.00
2013-3-24,60.3,53.1,48.6,53.6,49.3,45.8,95,87,76,29.64,29.53,5,1,10,0.00
2013-3-25,63.9,59.1,51.8,51.2,47.5,43.0,86,66,50,29.77,29.63,7,2,14,0.00
2013-3-26,65.8,60.5,54.7,54.9,52.7,48.6,94,76,62,29.71,29.62,5,2,11,0.17
2013-3-27,68.9,60.1,53.1,56.7,51.4,47.9,93,74,54,29.71,29.59,6,1,11,0.01
2013-3-28,69.1,59.5,52.2,56.7,52.3,47.9,96,78,57,29.87,29.66,6,1,11,0.00
2013-3-29,65.8,59.9,52.2,53.8,51.1,47.5,85,73,63,29.88,29.73,8,2,17,0.00
2013-3-30,68.2,62.0,57.2,53.0,48.8,43.2,80,62,45,29.85,29.66,11,3,24,0.00
2013-3-31,69.6,59.0,53.2,49.7,46.6,43.0,82,64,43,29.84,29.66,8,2,13,0.00